Time,TemperatureF,DewpointF,PressureIn,WindDirection,WindDirectionDegrees,WindSpeedMPH,WindSpeedGustMPH,Humidity,HourlyPrecipIn,Conditions,Clouds,dailyrainin,SoftwareType,DateUTC
2013-07-23 00:01:00,72.4,69.6,29.87,SW,224,0.0,1.0,91,0.00,,,0.00,LWC V2.10 B1702,2013-07-23 04:01:00,
2013-07-23 00:06:00,72.4,69.6,29.87,SSE,167,0.0,0.0,91,0.00,,,0.00,LWC V2.10 B1702,2013-07-23 04:06:00,
2013-07-23 00:11:00,72.4,69.6,29.86,SSE,156,0.0,0.0,91,0.00,,,0.00,LWC V2.10 B1702,2013-07-23 04:11:00,
2013-07-23 00:16:00,72.4,69.6,29.86,NNE,19,0.0,0.0,91,0.00,,,0.00,LWC V2.10 B1702,2013-07-23 04:16:00,
2013-07-23 00:21:00,72.4,69.6,29.86,East,94,1.0,2.0,91,0.00,,,0.00,LWC V2.10 B1702,2013-07-23 04:21:00,
2013-07-23 00:26:00,72.4,69.6,29.86,ESE,111,0.0,2.0,91,0.00,,,0.00,LWC V2.10 B1702,2013-07-23 04:26:00,
2013-07-23 00:31:00,72.4,69.6,29.86,SE,135,0.0,2.0,91,0.00,,,0.00,LWC V2.10 B1702,2013-07-23 04:31:00,
2013-07-23 00:36:00,72.4,69.6,29.85,ESE,112,0.0,0.0,91,0.00,,,0.00,LWC V2.10 B1702,2013-07-23 04:36:00,
2013-07-23 00:41:00,72.4,69.6,29.85,East,90,0.0,1.0,91,0.00,,,0.00,LWC V2.10 B1702,2013-07-23 04:41:00,
2013-07-23 00:46:00,72.4,69.6,29.85,SE,133,0.0,0.0,91,0.00,,,0.00,LWC V2.10 B1702,2013-07-23 04:46:00,
2013-07-23 00:51:00,72.4,69.6,29.85,SE,133,0.0,0.0,91,0.00,,,0.00,LWC V2.10 B1702,2013-07-23 04:51:00,
2013-07-23 00:56:00,72.5,69.7,29.85,SE,133,0.0,0.0,91,0.00,,,0.00,LWC V2.10 B1702,2013-07-23 04:56:00,
2013-07-23 01:01:00,72.5,69.7,29.84,SE,133,0.0,0.0,91,0.00,,,0.00,LWC V2.10 B1702,2013-07-23 05:01:00,
2013-07-23 01:06:00,72.5,69.7,29.84,SE,133,0.0,0.0,91,0.00,,,0.00,LWC V2.10 B1702,2013-07-23 05:06:00,
2013-07-23 01:11:00,72.5,69.7,29.84,SE,133,0.0,0.0,91,0.00,,,0.00,LWC V2.10 B1702,2013-07-23 05:11:00,
2013-07-23 01:16:00,72.5,69.7,29.83,SE,133,0.0,0.0,91,0.00,,,0.00,LWC V2.10 B1702,2013-07-23 05:16:00,
2013-07-23 01:21:00,72.5,69.7,29.83,ENE,63,0.0,0.0,91,0.00,,,0.00,LWC V2.10 B1702,2013-07-23 05:21:00,
2013-07-23 01:26:00,72.5,69.7,29.83,ENE,64,0.0,0.0,91,0.00,,,0.00,LWC V2.10 B1702,2013-07-23 05:26:00,
2013-07-23 01:31:00,72.5,69.7,29.82,ENE,64,0.0,0.0,91,0.00,,,0.00,LWC V2.10 B1702,2013-07-23 05:31:00,
2013-07-23 01:36:00,72.5,69.7,29.82,ENE,64,0.0,0.0,91,0.00,,,0.00,LWC V2.10 B1702,2013-07-23 05:36:00,
2013-07-23 01:41:00,72.6,69.8,29.82,ENE,64,0.0,0.0,91,0.00,,,0.00,LWC V2.10 B1702,2013-07-23 05:41:00,
2013-07-23 01:46:00,72.6,69.8,29.82,ESE,119,0.0,0.0,91,0.00,,,0.00,LWC V2.10 B1702,2013-07-23 05:46:00,
2013-07-23 01:51:00,72.6,70.1,29.82,ESE,119,0.0,0.0,92,0.00,,,0.00,LWC V2.10 B1702,2013-07-23 05:51:00,
2013-07-23 01:56:00,72.6,70.1,29.81,ESE,119,0.0,0.0,92,0.00,,,0.00,LWC V2.10 B1702,2013-07-23 05:56:00,
2013-07-23 02:01:00,72.7,70.2,29.81,ESE,119,0.0,0.0,92,0.00,,,0.00,LWC V2.10 B1702,2013-07-23 06:01:00,
2013-07-23 02:06:00,72.7,70.2,29.81,ESE,122,0.0,0.0,92,0.00,,,0.00,LWC V2.10 B1702,2013-07-23 06:06:00,
2013-07-23 02:11:00,72.7,70.2,29.81,East,92,0.0,0.0,92,0.00,,,0.00,LWC V2.10 B1702,2013-07-23 06:11:00,
2013-07-23 02:16:00,72.8,70.3,29.81,East,92,0.0,0.0,92,0.00,,,0.00,LWC V2.10 B1702,2013-07-23 06:16:00,
2013-07-23 02:21:00,72.7,70.2,29.80,East,92,0.0,0.0,92,0.00,,,0.00,LWC V2.10 B1702,2013-07-23 06:21:00,
2013-07-23 02:26:00,72.8,70.3,29.80,East,92,0.0,0.0,92,0.00,,,0.00,LWC V2.10 B1702,2013-07-23 06:26:00,
2013-07-23 02:31:00,72.8,70.3,29.80,SE,140,0.0,0.0,92,0.00,,,0.00,LWC V2.10 B1702,2013-07-23 06:31:00,
2013-07-23 02:36:00,72.8,70.3,29.80,SE,131,0.0,0.0,92,0.00,,,0.00,LWC V2.10 B1702,2013-07-23 06:36:00,
2013-07-23 02:41:00,72.8,70.3,29.80,ESE,122,0.0,1.0,92,0.00,,,0.00,LWC V2.10 B1702,2013-07-23 06:41:00,
2013-07-23 02:46:00,72.9,70.4,29.80,ESE,103,0.0,1.0,92,0.00,,,0.00,LWC V2.10 B1702,2013-07-23 06:46:00,
2013-07-23 02:51:00,72.9,70.4,29.80,ESE,103,0.0,0.0,92,0.00,,,0.00,LWC V2.10 B1702,2013-07-23 06:51:00,
2013-07-23 02:56:00,72.9,70.4,29.80,SSE,157,0.0,2.0,92,0.00,,,0.00,LWC V2.10 B1702,2013-07-23 06:56:00,
2013-07-23 03:01:00,72.9,70.4,29.79,SSE,157,0.0,0.0,92,0.00,,,0.00,LWC V2.10 B1702,2013-07-23 07:01:00,
2013-07-23 03:06:00,73.0,70.5,29.79,NE,53,0.0,0.0,92,0.00,,,0.00,LWC V2.10 B1702,2013-07-23 07:06:00,
2013-07-23 03:11:00,73.0,70.5,29.78,NE,53,0.0,0.0,92,0.00,,,0.00,LWC V2.10 B1702,2013-07-23 07:11:00,
2013-07-23 03:16:00,73.0,70.5,29.78,NE,53,0.0,0.0,92,0.00,,,0.00,LWC V2.10 B1702,2013-07-23 07:16:00,
2013-07-23 03:21:00,73.0,70.5,29.78,NE,53,0.0,0.0,92,0.00,,,0.00,LWC V2.10 B1702,2013-07-23 07:21:00,
2013-07-23 03:26:00,73.1,70.6,29.77,NE,53,0.0,0.0,92,0.00,,,0.00,LWC V2.10 B1702,2013-07-23 07:26:00,
2013-07-23 03:31:00,73.1,70.6,29.77,NE,53,0.0,0.0,92,0.00,,,0.00,LWC V2.10 B1702,2013-07-23 07:31:00,
2013-07-23 03:36:00,73.1,70.6,29.77,NE,53,0.0,0.0,92,0.00,,,0.00,LWC V2.10 B1702,2013-07-23 07:36:00,
2013-07-23 03:41:00,73.1,70.6,29.76,NE,53,0.0,0.0,92,0.00,,,0.00,LWC V2.10 B1702,2013-07-23 07:41:00,
2013-07-23 03:46:00,73.1,70.6,29.76,NE,53,0.0,0.0,92,0.00,,,0.00,LWC V2.10 B1702,2013-07-23 07:46:00,
2013-07-23 03:51:00,73.2,70.7,29.76,NE,53,0.0,0.0,92,0.00,,,0.00,LWC V2.10 B1702,2013-07-23 07:51:00,
2013-07-23 03:56:00,73.2,70.7,29.76,SW,217,0.0,0.0,92,0.00,,,0.00,LWC V2.10 B1702,2013-07-23 07:56:00,
2013-07-23 04:01:00,73.2,70.7,29.76,ESE,105,0.0,1.0,92,0.00,,,0.00,LWC V2.10 B1702,2013-07-23 08:01:00,
2013-07-23 04:06:00,73.3,70.8,29.76,SSW,209,0.0,0.0,92,0.00,,,0.00,LWC V2.10 B1702,2013-07-23 08:06:00,
2013-07-23 04:11:00,73.3,70.8,29.75,SE,146,0.0,0.0,92,0.00,,,0.00,LWC V2.10 B1702,2013-07-23 08:11:00,
2013-07-23 04:16:00,73.4,70.9,29.75,SE,146,0.0,0.0,92,0.00,,,0.00,LWC V2.10 B1702,2013-07-23 08:16:00,
2013-07-23 04:21:00,73.4,70.9,29.75,SSE,161,0.0,0.0,92,0.00,,,0.00,LWC V2.10 B1702,2013-07-23 08:21:00,
2013-07-23 04:26:00,73.4,70.9,29.75,SE,126,0.0,0.0,92,0.00,,,0.00,LWC V2.10 B1702,2013-07-23 08:26:00,
2013-07-23 04:31:00,73.4,70.9,29.75,SW,221,0.0,0.0,92,0.00,,,0.00,LWC V2.10 B1702,2013-07-23 08:31:00,
2013-07-23 04:36:00,73.4,70.9,29.75,SSW,201,0.0,0.0,92,0.00,,,0.00,LWC V2.10 B1702,2013-07-23 08:36:00,
2013-07-23 04:41:00,73.4,70.9,29.75,ENE,57,0.0,0.0,92,0.00,,,0.00,LWC V2.10 B1702,2013-07-23 08:41:00,
2013-07-23 04:46:00,73.4,70.9,29.75,ENE,57,0.0,0.0,92,0.00,,,0.00,LWC V2.10 B1702,2013-07-23 08:46:00,
2013-07-23 04:51:00,73.5,71.0,29.75,SSE,153,0.0,0.0,92,0.00,,,0.00,LWC V2.10 B1702,2013-07-23 08:51:00,
2013-07-23 04:56:00,73.5,71.0,29.75,East,86,0.0,1.0,92,0.00,,,0.00,LWC V2.10 B1702,2013-07-23 08:56:00,
2013-07-23 05:01:00,73.5,71.0,29.74,ENE,77,0.0,0.0,92,0.00,,,0.00,LWC V2.10 B1702,2013-07-23 09:01:00,
2013-07-23 05:06:00,73.5,71.0,29.74,ESE,118,0.0,0.0,92,0.00,,,0.00,LWC V2.10 B1702,2013-07-23 09:06:00,
2013-07-23 05:11:00,73.5,71.0,29.74,ESE,118,0.0,0.0,92,0.00,,,0.00,LWC V2.10 B1702,2013-07-23 09:11:00,
2013-07-23 05:16:00,73.6,71.1,29.74,East,92,0.0,0.0,92,0.00,,,0.00,LWC V2.10 B1702,2013-07-23 09:16:00,
2013-07-23 05:21:00,73.5,71.0,29.74,East,92,0.0,0.0,92,0.00,,,0.00,LWC V2.10 B1702,2013-07-23 09:21:00,
2013-07-23 05:26:00,73.5,71.0,29.74,SSW,211,0.0,0.0,92,0.00,,,0.00,LWC V2.10 B1702,2013-07-23 09:26:00,
2013-07-23 05:31:00,73.5,71.0,29.74,SW,217,0.0,1.0,92,0.00,,,0.00,LWC V2.10 B1702,2013-07-23 09:31:00,
2013-07-23 05:36:00,73.5,71.0,29.74,WSW,250,0.0,0.0,92,0.00,,,0.00,LWC V2.10 B1702,2013-07-23 09:36:00,
2013-07-23 05:41:00,73.5,71.3,29.73,WSW,241,0.0,0.0,93,0.00,,,0.00,LWC V2.10 B1702,2013-07-23 09:41:00,
2013-07-23 05:46:00,73.5,71.0,29.73,South,176,0.0,0.0,92,0.00,,,0.00,LWC V2.10 B1702,2013-07-23 09:46:00,
2013-07-23 05:51:00,73.6,71.4,29.73,SSW,213,0.0,0.0,93,0.00,,,0.00,LWC V2.10 B1702,2013-07-23 09:51:00,
2013-07-23 05:56:00,73.6,71.4,29.73,SSW,206,0.0,0.0,93,0.00,,,0.00,LWC V2.10 B1702,2013-07-23 09:56:00,
2013-07-23 06:01:00,73.7,71.5,29.73,East,101,0.0,0.0,93,0.00,,,0.00,LWC V2.10 B1702,2013-07-23 10:01:00,
2013-07-23 06:06:00,73.7,71.5,29.73,ESE,120,0.0,0.0,93,0.00,,,0.00,LWC V2.10 B1702,2013-07-23 10:06:00,
2013-07-23 06:11:00,73.8,71.6,29.73,ESE,120,0.0,0.0,93,0.00,,,0.00,LWC V2.10 B1702,2013-07-23 10:11:00,
2013-07-23 06:16:00,73.9,71.7,29.73,SSE,159,0.0,0.0,93,0.00,,,0.00,LWC V2.10 B1702,2013-07-23 10:16:00,
2013-07-23 06:21:00,73.9,71.7,29.73,SE,139,0.0,0.0,93,0.00,,,0.00,LWC V2.10 B1702,2013-07-23 10:21:00,
2013-07-23 06:26:00,73.9,71.7,29.73,NE,55,0.0,0.0,93,0.00,,,0.00,LWC V2.10 B1702,2013-07-23 10:26:00,
2013-07-23 06:31:00,74.0,71.8,29.73,NE,55,0.0,0.0,93,0.00,,,0.00,LWC V2.10 B1702,2013-07-23 10:31:00,
2013-07-23 06:36:00,74.0,71.5,29.73,SSE,151,0.0,1.0,92,0.00,,,0.00,LWC V2.10 B1702,2013-07-23 10:36:00,
2013-07-23 06:41:00,74.0,71.5,29.73,SSE,150,0.0,0.0,92,0.00,,,0.00,LWC V2.10 B1702,2013-07-23 10:41:00,
2013-07-23 06:46:00,74.0,71.8,29.73,SSE,150,0.0,1.0,93,0.00,,,0.00,LWC V2.10 B1702,2013-07-23 10:46:00,
2013-07-23 06:51:00,74.0,71.5,29.73,East,86,0.0,0.0,92,0.00,,,0.00,LWC V2.10 B1702,2013-07-23 10:51:00,
2013-07-23 06:56:00,74.1,71.6,29.73,SSW,196,0.0,0.0,92,0.00,,,0.00,LWC V2.10 B1702,2013-07-23 10:56:00,
2013-07-23 07:01:00,74.2,72.0,29.72,West,273,0.0,1.0,93,0.00,,,0.00,LWC V2.10 B1702,2013-07-23 11:01:00,
2013-07-23 07:06:00,74.3,72.1,29.72,West,270,0.0,2.0,93,0.00,,,0.00,LWC V2.10 B1702,2013-07-23 11:06:00,
2013-07-23 07:11:00,74.4,72.2,29.72,SSW,198,0.0,1.0,93,0.00,,,0.00,LWC V2.10 B1702,2013-07-23 11:11:00,
2013-07-23 07:16:00,74.5,72.3,29.72,West,269,0.0,3.0,93,0.00,,,0.00,LWC V2.10 B1702,2013-07-23 11:16:00,
2013-07-23 07:21:00,74.7,72.5,29.71,South,186,0.0,1.0,93,0.00,,,0.00,LWC V2.10 B1702,2013-07-23 11:21:00,
2013-07-23 07:26:00,74.8,72.6,29.71,WSW,243,0.0,0.0,93,0.00,,,0.00,LWC V2.10 B1702,2013-07-23 11:26:00,
2013-07-23 07:31:00,75.0,72.8,29.70,ESE,120,0.0,0.0,93,0.00,,,0.00,LWC V2.10 B1702,2013-07-23 11:31:00,
2013-07-23 07:36:00,75.2,73.0,29.70,South,178,0.0,1.0,93,0.00,,,0.00,LWC V2.10 B1702,2013-07-23 11:36:00,
2013-07-23 07:41:00,75.3,72.8,29.71,WSW,252,0.0,1.0,92,0.00,,,0.00,LWC V2.10 B1702,2013-07-23 11:41:00,
2013-07-23 07:46:00,75.4,72.9,29.70,SSW,207,2.0,2.0,92,0.00,,,0.00,LWC V2.10 B1702,2013-07-23 11:46:00,
2013-07-23 07:51:00,75.5,73.0,29.70,WNW,292,0.0,2.0,92,0.00,,,0.00,LWC V2.10 B1702,2013-07-23 11:51:00,
2013-07-23 07:56:00,75.6,73.1,29.70,SSE,157,0.0,1.0,92,0.00,,,0.00,LWC V2.10 B1702,2013-07-23 11:56:00,
2013-07-23 08:01:00,75.6,73.1,29.70,South,176,0.0,2.0,92,0.00,,,0.00,LWC V2.10 B1702,2013-07-23 12:01:00,
2013-07-23 08:06:00,75.7,73.2,29.69,SE,144,0.0,3.0,92,0.00,,,0.00,LWC V2.10 B1702,2013-07-23 12:06:00,
2013-07-23 08:11:00,75.8,73.3,29.69,SSE,165,0.0,2.0,92,0.00,,,0.00,LWC V2.10 B1702,2013-07-23 12:11:00,
2013-07-23 08:16:00,75.9,73.1,29.69,ENE,78,0.0,2.0,91,0.00,,,0.00,LWC V2.10 B1702,2013-07-23 12:16:00,
2013-07-23 08:21:00,76.1,73.3,29.69,East,83,1.0,2.0,91,0.00,,,0.00,LWC V2.10 B1702,2013-07-23 12:21:00,
2013-07-23 08:26:00,76.3,73.5,29.69,South,178,0.0,3.0,91,0.00,,,0.00,LWC V2.10 B1702,2013-07-23 12:26:00,
2013-07-23 08:31:00,76.4,73.6,29.69,SSE,163,0.0,2.0,91,0.00,,,0.00,LWC V2.10 B1702,2013-07-23 12:31:00,
2013-07-23 08:36:00,76.6,73.8,29.69,West,271,1.0,2.0,91,0.00,,,0.00,LWC V2.10 B1702,2013-07-23 12:36:00,
2013-07-23 08:41:00,76.8,73.6,29.69,SW,218,0.0,1.0,90,0.00,,,0.00,LWC V2.10 B1702,2013-07-23 12:41:00,
2013-07-23 08:46:00,77.0,73.8,29.68,SSE,162,0.0,2.0,90,0.00,,,0.00,LWC V2.10 B1702,2013-07-23 12:46:00,
2013-07-23 08:51:00,77.3,74.1,29.68,SW,215,0.0,3.0,90,0.00,,,0.00,LWC V2.10 B1702,2013-07-23 12:51:00,
2013-07-23 08:56:00,77.3,74.1,29.68,West,272,0.0,1.0,90,0.00,,,0.00,LWC V2.10 B1702,2013-07-23 12:56:00,
2013-07-23 09:01:00,77.5,74.3,29.67,SSW,209,1.0,4.0,90,0.00,,,0.00,LWC V2.10 B1702,2013-07-23 13:01:00,
2013-07-23 09:06:00,77.6,74.1,29.67,East,88,0.0,4.0,89,0.00,,,0.00,LWC V2.10 B1702,2013-07-23 13:06:00,
2013-07-23 09:11:00,77.8,74.3,29.67,SW,229,0.0,1.0,89,0.00,,,0.00,LWC V2.10 B1702,2013-07-23 13:11:00,
2013-07-23 09:16:00,77.9,74.4,29.67,SSE,167,1.0,2.0,89,0.00,,,0.00,LWC V2.10 B1702,2013-07-23 13:16:00,
2013-07-23 09:21:00,78.1,74.6,29.67,SW,234,0.0,1.0,89,0.00,,,0.00,LWC V2.10 B1702,2013-07-23 13:21:00,
2013-07-23 09:26:00,78.4,74.9,29.67,SW,215,0.0,2.0,89,0.00,,,0.00,LWC V2.10 B1702,2013-07-23 13:26:00,
2013-07-23 09:31:00,78.5,74.6,29.67,SW,217,1.0,3.0,88,0.00,,,0.00,LWC V2.10 B1702,2013-07-23 13:31:00,
2013-07-23 09:36:00,78.5,74.3,29.67,SW,229,2.0,2.0,87,0.00,,,0.00,LWC V2.10 B1702,2013-07-23 13:36:00,
2013-07-23 09:41:00,78.6,74.7,29.67,WSW,247,0.0,1.0,88,0.00,,,0.00,LWC V2.10 B1702,2013-07-23 13:41:00,
2013-07-23 09:46:00,78.7,74.8,29.67,WNW,301,1.0,2.0,88,0.00,,,0.00,LWC V2.10 B1702,2013-07-23 13:46:00,
2013-07-23 09:51:00,78.8,74.6,29.66,WNW,290,1.0,4.0,87,0.00,,,0.00,LWC V2.10 B1702,2013-07-23 13:51:00,
2013-07-23 09:56:00,79.0,74.8,29.67,SW,223,0.0,2.0,87,0.00,,,0.00,LWC V2.10 B1702,2013-07-23 13:56:00,
2013-07-23 10:01:00,79.0,74.8,29.66,SW,225,0.0,1.0,87,0.00,,,0.00,LWC V2.10 B1702,2013-07-23 14:01:00,
2013-07-23 10:06:00,79.0,74.8,29.66,SW,225,2.0,2.0,87,0.00,,,0.00,LWC V2.10 B1702,2013-07-23 14:06:00,
2013-07-23 10:11:00,79.0,74.8,29.66,SSE,151,1.0,2.0,87,0.00,,,0.00,LWC V2.10 B1702,2013-07-23 14:11:00,
2013-07-23 10:16:00,78.9,74.3,29.66,SW,228,0.0,0.0,86,0.00,,,0.00,LWC V2.10 B1702,2013-07-23 14:16:00,
2013-07-23 10:21:00,78.9,74.7,29.65,South,182,0.0,1.0,87,0.00,,,0.00,LWC V2.10 B1702,2013-07-23 14:21:00,
2013-07-23 10:26:00,78.9,74.7,29.65,WSW,250,1.0,2.0,87,0.00,,,0.00,LWC V2.10 B1702,2013-07-23 14:26:00,
2013-07-23 10:31:00,78.9,74.7,29.66,SW,222,1.0,3.0,87,0.00,,,0.00,LWC V2.10 B1702,2013-07-23 14:31:00,
2013-07-23 10:36:00,78.9,74.7,29.66,West,275,0.0,1.0,87,0.00,,,0.00,LWC V2.10 B1702,2013-07-23 14:36:00,
2013-07-23 10:41:00,78.9,74.7,29.65,SSW,211,0.0,2.0,87,0.00,,,0.00,LWC V2.10 B1702,2013-07-23 14:41:00,
2013-07-23 10:46:00,78.8,74.6,29.66,SSW,213,0.0,4.0,87,0.00,,,0.00,LWC V2.10 B1702,2013-07-23 14:46:00,
2013-07-23 10:51:00,78.8,74.6,29.66,WSW,238,0.0,1.0,87,0.00,,,0.00,LWC V2.10 B1702,2013-07-23 14:51:00,
2013-07-23 10:56:00,79.3,75.1,29.66,WNW,295,0.0,3.0,87,0.00,,,0.00,LWC V2.10 B1702,2013-07-23 14:56:00,
2013-07-23 11:01:00,80.0,75.4,29.65,WSW,254,0.0,1.0,86,0.00,,,0.00,LWC V2.10 B1702,2013-07-23 15:01:00,
2013-07-23 11:06:00,80.6,76.0,29.65,SE,144,0.0,1.0,86,0.00,,,0.00,LWC V2.10 B1702,2013-07-23 15:06:00,
2013-07-23 11:11:00,81.4,76.4,29.65,SSW,213,0.0,1.0,85,0.00,,,0.00,LWC V2.10 B1702,2013-07-23 15:11:00,
2013-07-23 11:16:00,82.3,77.0,29.65,South,172,1.0,4.0,84,0.00,,,0.00,LWC V2.10 B1702,2013-07-23 15:16:00,
2013-07-23 11:21:00,82.7,76.6,29.65,SW,219,2.0,5.0,82,0.00,,,0.00,LWC V2.10 B1702,2013-07-23 15:21:00,
2013-07-23 11:26:00,83.2,77.1,29.65,SSW,196,1.0,5.0,82,0.00,,,0.00,LWC V2.10 B1702,2013-07-23 15:26:00,
2013-07-23 11:31:00,83.6,77.5,29.65,WNW,282,0.0,2.0,82,0.00,,,0.00,LWC V2.10 B1702,2013-07-23 15:31:00,
2013-07-23 11:36:00,83.4,76.6,29.65,South,185,0.0,2.0,80,0.00,,,0.00,LWC V2.10 B1702,2013-07-23 15:36:00,
2013-07-23 11:41:00,83.6,77.1,29.65,WSW,248,2.0,2.0,81,0.00,,,0.00,LWC V2.10 B1702,2013-07-23 15:41:00,
2013-07-23 11:46:00,83.6,76.8,29.64,NW,307,3.0,4.0,80,0.00,,,0.00,LWC V2.10 B1702,2013-07-23 15:46:00,
2013-07-23 11:51:00,83.4,76.9,29.64,North,5,2.0,2.0,81,0.00,,,0.00,LWC V2.10 B1702,2013-07-23 15:51:00,
2013-07-23 11:56:00,83.4,76.9,29.64,WSW,257,4.0,4.0,81,0.00,,,0.00,LWC V2.10 B1702,2013-07-23 15:56:00,
2013-07-23 12:01:00,83.4,76.9,29.64,WSW,257,0.0,4.0,81,0.00,,,0.00,LWC V2.10 B1702,2013-07-23 16:01:00,
2013-07-23 12:06:00,83.2,76.4,29.64,SW,223,2.0,2.0,80,0.00,,,0.00,LWC V2.10 B1702,2013-07-23 16:06:00,
2013-07-23 12:11:00,83.6,77.1,29.63,WSW,245,3.0,4.0,81,0.00,,,0.00,LWC V2.10 B1702,2013-07-23 16:11:00,
2013-07-23 12:16:00,83.2,76.4,29.63,SW,223,1.0,5.0,80,0.00,,,0.00,LWC V2.10 B1702,2013-07-23 16:16:00,
2013-07-23 12:21:00,83.2,76.7,29.63,SW,231,3.0,3.0,81,0.00,,,0.00,LWC V2.10 B1702,2013-07-23 16:21:00,
2013-07-23 12:26:00,83.1,76.6,29.63,West,281,2.0,4.0,81,0.00,,,0.00,LWC V2.10 B1702,2013-07-23 16:26:00,
2013-07-23 12:31:00,83.0,76.5,29.63,WSW,244,2.0,4.0,81,0.00,,,0.00,LWC V2.10 B1702,2013-07-23 16:31:00,
2013-07-23 12:36:00,83.1,76.3,29.63,West,271,4.0,6.0,80,0.00,,,0.00,LWC V2.10 B1702,2013-07-23 16:36:00,
2013-07-23 12:41:00,83.4,76.9,29.62,NW,307,3.0,6.0,81,0.00,,,0.00,LWC V2.10 B1702,2013-07-23 16:41:00,
2013-07-23 12:46:00,83.5,76.7,29.63,SSE,162,2.0,3.0,80,0.00,,,0.00,LWC V2.10 B1702,2013-07-23 16:46:00,
2013-07-23 12:51:00,83.6,77.5,29.62,SW,229,2.0,5.0,82,0.00,,,0.00,LWC V2.10 B1702,2013-07-23 16:51:00,
2013-07-23 12:56:00,83.5,76.7,29.62,WNW,286,0.0,2.0,80,0.00,,,0.00,LWC V2.10 B1702,2013-07-23 16:56:00,
2013-07-23 13:01:00,83.2,76.4,29.62,WSW,246,3.0,5.0,80,0.00,,,0.00,LWC V2.10 B1702,2013-07-23 17:01:00,
2013-07-23 13:06:00,83.1,77.0,29.62,WSW,246,0.0,3.0,82,0.00,,,0.00,LWC V2.10 B1702,2013-07-23 17:06:00,
2013-07-23 13:11:00,82.9,76.4,29.62,SSW,192,1.0,5.0,81,0.00,,,0.00,LWC V2.10 B1702,2013-07-23 17:11:00,
2013-07-23 13:16:00,82.4,76.3,29.61,WNW,295,4.0,5.0,82,0.00,,,0.00,LWC V2.10 B1702,2013-07-23 17:16:00,
2013-07-23 13:21:00,82.3,76.2,29.61,WSW,257,2.0,2.0,82,0.00,,,0.00,LWC V2.10 B1702,2013-07-23 17:21:00,
2013-07-23 13:26:00,82.3,76.2,29.61,SW,234,0.0,3.0,82,0.00,,,0.00,LWC V2.10 B1702,2013-07-23 17:26:00,
2013-07-23 13:31:00,82.2,76.1,29.60,North,5,0.0,5.0,82,0.00,,,0.00,LWC V2.10 B1702,2013-07-23 17:31:00,
2013-07-23 13:36:00,82.1,76.4,29.60,SW,219,2.0,6.0,83,0.00,,,0.00,LWC V2.10 B1702,2013-07-23 17:36:00,
2013-07-23 13:41:00,81.9,75.8,29.60,SW,223,3.0,3.0,82,0.00,,,0.00,LWC V2.10 B1702,2013-07-23 17:41:00,
2013-07-23 13:46:00,81.8,76.1,29.60,NNE,19,1.0,4.0,83,0.00,,,0.00,LWC V2.10 B1702,2013-07-23 17:46:00,
2013-07-23 13:51:00,82.0,76.7,29.60,NW,305,2.0,6.0,84,0.00,,,0.00,LWC V2.10 B1702,2013-07-23 17:51:00,
2013-07-23 13:56:00,81.9,76.2,29.60,SW,236,3.0,7.0,83,0.00,,,0.00,LWC V2.10 B1702,2013-07-23 17:56:00,
2013-07-23 14:01:00,81.8,76.1,29.60,North,10,5.0,7.0,83,0.00,,,0.00,LWC V2.10 B1702,2013-07-23 18:01:00,
2013-07-23 14:06:00,81.8,76.5,29.60,SSE,168,4.0,5.0,84,0.00,,,0.00,LWC V2.10 B1702,2013-07-23 18:06:00,
2013-07-23 14:11:00,82.3,77.0,29.60,SSW,207,1.0,2.0,84,0.00,,,0.00,LWC V2.10 B1702,2013-07-23 18:11:00,
2013-07-23 14:16:00,82.7,77.0,29.60,SSW,204,0.0,3.0,83,0.00,,,0.00,LWC V2.10 B1702,2013-07-23 18:16:00,
2013-07-23 14:21:00,82.9,76.8,29.60,WNW,290,3.0,4.0,82,0.00,,,0.00,LWC V2.10 B1702,2013-07-23 18:21:00,
2013-07-23 14:26:00,82.9,76.8,29.60,WSW,244,5.0,6.0,82,0.00,,,0.00,LWC V2.10 B1702,2013-07-23 18:26:00,
2013-07-23 14:31:00,83.2,77.1,29.59,WSW,247,0.0,4.0,82,0.00,,,0.00,LWC V2.10 B1702,2013-07-23 18:31:00,
2013-07-23 14:36:00,83.4,76.9,29.59,SSE,155,2.0,4.0,81,0.00,,,0.00,LWC V2.10 B1702,2013-07-23 18:36:00,
2013-07-23 14:37:00,83.4,76.9,29.59,West,267,2.0,3.0,81,0.00,,,0.00,LWC V2.10 B1702,2013-07-23 18:37:00,
2013-07-23 14:42:00,83.5,77.0,29.59,North,355,5.0,7.0,81,0.00,,,0.00,LWC V2.10 B1702,2013-07-23 18:42:00,
2013-07-23 14:47:00,83.5,77.4,29.59,West,265,3.0,11.0,82,0.00,,,0.00,LWC V2.10 B1702,2013-07-23 18:47:00,
2013-07-23 14:52:00,83.8,77.3,29.59,West,269,6.0,7.0,81,0.00,,,0.00,LWC V2.10 B1702,2013-07-23 18:52:00,
2013-07-23 14:57:00,83.8,76.9,29.59,WSW,238,2.0,4.0,80,0.00,,,0.00,LWC V2.10 B1702,2013-07-23 18:57:00,
2013-07-23 15:02:00,83.2,76.7,29.58,West,260,0.0,6.0,81,0.00,,,0.00,LWC V2.10 B1702,2013-07-23 19:02:00,
2013-07-23 15:07:00,82.8,76.7,29.58,West,271,2.0,10.0,82,0.00,,,0.00,LWC V2.10 B1702,2013-07-23 19:07:00,
2013-07-23 15:12:00,82.4,76.7,29.58,WSW,250,0.0,3.0,83,0.00,,,0.00,LWC V2.10 B1702,2013-07-23 19:12:00,
2013-07-23 15:17:00,82.3,76.6,29.58,SW,232,4.0,5.0,83,0.00,,,0.00,LWC V2.10 B1702,2013-07-23 19:17:00,
2013-07-23 15:22:00,82.2,76.5,29.58,WSW,243,0.0,4.0,83,0.00,,,0.00,LWC V2.10 B1702,2013-07-23 19:22:00,
2013-07-23 15:27:00,82.5,76.4,29.58,West,259,0.0,6.0,82,0.00,,,0.00,LWC V2.10 B1702,2013-07-23 19:27:00,
2013-07-23 15:32:00,82.7,76.3,29.59,West,262,5.0,6.0,81,0.00,,,0.00,LWC V2.10 B1702,2013-07-23 19:32:00,
2013-07-23 15:37:00,82.6,76.5,29.59,SW,236,2.0,4.0,82,0.00,,,0.00,LWC V2.10 B1702,2013-07-23 19:37:00,
2013-07-23 15:42:00,82.6,76.5,29.58,West,281,0.0,4.0,82,0.00,,,0.00,LWC V2.10 B1702,2013-07-23 19:42:00,
2013-07-23 15:47:00,82.3,76.2,29.58,SE,130,2.0,4.0,82,0.00,,,0.00,LWC V2.10 B1702,2013-07-23 19:47:00,
2013-07-23 15:52:00,82.0,75.9,29.58,East,101,0.0,5.0,82,0.00,,,0.00,LWC V2.10 B1702,2013-07-23 19:52:00,
2013-07-23 15:55:00,82.0,75.9,29.58,WSW,250,3.0,6.0,82,0.00,,,0.00,LWC V2.10 B1702,2013-07-23 19:55:00,
2013-07-23 16:00:00,81.9,75.8,29.58,WSW,248,1.0,6.0,82,0.00,,,0.00,LWC V2.10 B1702,2013-07-23 20:00:00,
2013-07-23 16:05:00,81.7,75.7,29.58,WSW,253,3.0,4.0,82,0.00,,,0.00,LWC V2.10 B1702,2013-07-23 20:05:00,
2013-07-23 16:10:00,81.2,75.2,29.58,SW,227,4.0,4.0,82,0.00,,,0.00,LWC V2.10 B1702,2013-07-23 20:10:00,
2013-07-23 16:16:00,80.9,75.2,29.59,SW,234,2.0,7.0,83,0.00,,,0.00,LWC V2.10 B1702,2013-07-23 20:16:00,
2013-07-23 16:21:00,80.6,74.9,29.58,West,260,1.0,4.0,83,0.00,,,0.00,LWC V2.10 B1702,2013-07-23 20:21:00,
2013-07-23 16:26:00,80.6,74.9,29.58,South,188,3.0,5.0,83,0.00,,,0.00,LWC V2.10 B1702,2013-07-23 20:26:00,
2013-07-23 16:31:00,80.5,74.8,29.58,ESE,107,1.0,5.0,83,0.00,,,0.00,LWC V2.10 B1702,2013-07-23 20:31:00,
2013-07-23 16:36:00,80.4,74.7,29.58,NW,325,2.0,4.0,83,0.00,,,0.00,LWC V2.10 B1702,2013-07-23 20:36:00,
2013-07-23 16:41:00,80.3,74.6,29.58,WSW,240,2.0,7.0,83,0.00,,,0.00,LWC V2.10 B1702,2013-07-23 20:41:00,
2013-07-23 16:46:00,80.2,74.9,29.58,WNW,300,2.0,6.0,84,0.00,,,0.00,LWC V2.10 B1702,2013-07-23 20:46:00,
2013-07-23 16:51:00,80.1,74.5,29.58,SSW,194,2.0,6.0,83,0.00,,,0.00,LWC V2.10 B1702,2013-07-23 20:51:00,
2013-07-23 16:56:00,79.9,74.6,29.58,WNW,288,5.0,5.0,84,0.00,,,0.00,LWC V2.10 B1702,2013-07-23 20:56:00,
2013-07-23 17:01:00,79.8,74.5,29.58,SW,223,0.0,3.0,84,0.00,,,0.00,LWC V2.10 B1702,2013-07-23 21:01:00,
2013-07-23 17:06:00,79.7,74.4,29.58,WSW,258,1.0,3.0,84,0.00,,,0.00,LWC V2.10 B1702,2013-07-23 21:06:00,
2013-07-23 17:11:00,79.3,74.0,29.58,North,0,1.0,6.0,84,0.00,,,0.00,LWC V2.10 B1702,2013-07-23 21:11:00,
2013-07-23 17:16:00,79.0,74.1,29.58,WNW,299,1.0,4.0,85,0.00,,,0.00,LWC V2.10 B1702,2013-07-23 21:16:00,
2013-07-23 17:21:00,78.6,73.7,29.58,West,264,0.0,5.0,85,0.00,,,0.00,LWC V2.10 B1702,2013-07-23 21:21:00,
2013-07-23 17:26:00,78.2,73.3,29.57,West,277,1.0,3.0,85,0.00,,,0.00,LWC V2.10 B1702,2013-07-23 21:26:00,
2013-07-23 17:31:00,78.2,73.7,29.57,WNW,298,2.0,8.0,86,0.00,,,0.00,LWC V2.10 B1702,2013-07-23 21:31:00,
2013-07-23 17:36:00,78.2,73.7,29.57,West,281,0.0,4.0,86,0.00,,,0.00,LWC V2.10 B1702,2013-07-23 21:36:00,
2013-07-23 17:41:00,78.2,73.7,29.57,SW,230,0.0,3.0,86,0.00,,,0.00,LWC V2.10 B1702,2013-07-23 21:41:00,
2013-07-23 17:46:00,78.1,73.6,29.57,West,278,2.0,7.0,86,0.00,,,0.00,LWC V2.10 B1702,2013-07-23 21:46:00,
2013-07-23 17:51:00,77.9,73.4,29.57,NW,321,1.0,2.0,86,0.00,,,0.00,LWC V2.10 B1702,2013-07-23 21:51:00,
2013-07-23 17:56:00,77.9,73.4,29.57,South,173,3.0,4.0,86,0.00,,,0.00,LWC V2.10 B1702,2013-07-23 21:56:00,
2013-07-23 18:01:00,77.9,73.7,29.57,WNW,284,1.0,3.0,87,0.00,,,0.00,LWC V2.10 B1702,2013-07-23 22:01:00,
2013-07-23 18:06:00,77.9,73.4,29.57,West,276,6.0,6.0,86,0.00,,,0.00,LWC V2.10 B1702,2013-07-23 22:06:00,
2013-07-23 18:11:00,77.9,73.7,29.57,SE,140,0.0,1.0,87,0.00,,,0.00,LWC V2.10 B1702,2013-07-23 22:11:00,
2013-07-23 18:16:00,77.9,73.7,29.57,West,265,1.0,4.0,87,0.00,,,0.00,LWC V2.10 B1702,2013-07-23 22:16:00,
2013-07-23 18:21:00,77.9,73.7,29.57,West,277,1.0,5.0,87,0.00,,,0.00,LWC V2.10 B1702,2013-07-23 22:21:00,
2013-07-23 18:26:00,77.8,73.6,29.58,West,270,0.0,4.0,87,0.00,,,0.00,LWC V2.10 B1702,2013-07-23 22:26:00,
2013-07-23 18:31:00,77.7,73.5,29.58,West,265,0.0,4.0,87,0.00,,,0.00,LWC V2.10 B1702,2013-07-23 22:31:00,
2013-07-23 18:36:00,77.5,73.3,29.58,NW,306,1.0,4.0,87,0.00,,,0.00,LWC V2.10 B1702,2013-07-23 22:36:00,
2013-07-23 18:41:00,77.4,73.2,29.58,SW,227,3.0,3.0,87,0.00,,,0.00,LWC V2.10 B1702,2013-07-23 22:41:00,
2013-07-23 18:46:00,77.2,73.0,29.58,North,5,0.0,3.0,87,0.00,,,0.00,LWC V2.10 B1702,2013-07-23 22:46:00,
2013-07-23 18:51:00,77.1,72.9,29.58,SW,232,3.0,4.0,87,0.00,,,0.00,LWC V2.10 B1702,2013-07-23 22:51:00,
2013-07-23 18:56:00,77.0,73.2,29.58,West,269,0.0,3.0,88,0.00,,,0.00,LWC V2.10 B1702,2013-07-23 22:56:00,
2013-07-23 19:01:00,76.8,73.0,29.59,West,271,0.0,1.0,88,0.00,,,0.00,LWC V2.10 B1702,2013-07-23 23:01:00,
2013-07-23 19:06:00,76.7,72.5,29.59,West,280,0.0,3.0,87,0.00,,,0.00,LWC V2.10 B1702,2013-07-23 23:06:00,
2013-07-23 19:11:00,76.6,72.8,29.59,West,268,1.0,5.0,88,0.00,,,0.00,LWC V2.10 B1702,2013-07-23 23:11:00,
2013-07-23 19:16:00,76.5,72.7,29.59,NW,324,0.0,2.0,88,0.00,,,0.00,LWC V2.10 B1702,2013-07-23 23:16:00,
2013-07-23 19:21:00,76.4,72.6,29.59,WSW,246,0.0,4.0,88,0.00,,,0.00,LWC V2.10 B1702,2013-07-23 23:21:00,
2013-07-23 19:26:00,76.3,72.8,29.59,WSW,254,0.0,4.0,89,0.00,,,0.00,LWC V2.10 B1702,2013-07-23 23:26:00,
2013-07-23 19:31:00,76.3,72.8,29.59,West,272,2.0,2.0,89,0.00,,,0.00,LWC V2.10 B1702,2013-07-23 23:31:00,
2013-07-23 19:36:00,76.2,72.7,29.59,West,266,0.0,3.0,89,0.00,,,0.00,LWC V2.10 B1702,2013-07-23 23:36:00,
2013-07-23 19:41:00,76.2,72.7,29.59,WNW,291,0.0,2.0,89,0.00,,,0.00,LWC V2.10 B1702,2013-07-23 23:41:00,
2013-07-23 19:46:00,76.1,72.6,29.59,NW,316,0.0,1.0,89,0.00,,,0.00,LWC V2.10 B1702,2013-07-23 23:46:00,
2013-07-23 19:51:00,76.1,72.6,29.59,West,263,0.0,3.0,89,0.00,,,0.00,LWC V2.10 B1702,2013-07-23 23:51:00,
2013-07-23 19:56:00,76.0,72.5,29.59,WNW,284,2.0,3.0,89,0.00,,,0.00,LWC V2.10 B1702,2013-07-23 23:56:00,
2013-07-23 20:01:00,76.0,72.5,29.59,West,260,0.0,1.0,89,0.00,,,0.00,LWC V2.10 B1702,2013-07-24 00:01:00,
2013-07-23 20:06:00,76.0,72.5,29.59,WSW,246,0.0,2.0,89,0.00,,,0.00,LWC V2.10 B1702,2013-07-24 00:06:00,
2013-07-23 20:11:00,75.9,72.4,29.59,NNW,341,2.0,2.0,89,0.00,,,0.00,LWC V2.10 B1702,2013-07-24 00:11:00,
2013-07-23 20:16:00,75.9,72.4,29.59,West,267,4.0,7.0,89,0.00,,,0.00,LWC V2.10 B1702,2013-07-24 00:16:00,
2013-07-23 20:21:00,75.8,72.6,29.60,NW,315,2.0,3.0,90,0.00,,,0.00,LWC V2.10 B1702,2013-07-24 00:21:00,
2013-07-23 20:26:00,75.8,72.6,29.59,West,264,3.0,6.0,90,0.00,,,0.00,LWC V2.10 B1702,2013-07-24 00:26:00,
2013-07-23 20:31:00,75.8,72.6,29.60,West,280,1.0,2.0,90,0.00,,,0.00,LWC V2.10 B1702,2013-07-24 00:31:00,
2013-07-23 20:36:00,75.9,72.7,29.59,West,280,0.0,6.0,90,0.00,,,0.00,LWC V2.10 B1702,2013-07-24 00:36:00,
2013-07-23 20:41:00,75.9,72.7,29.59,West,273,0.0,4.0,90,0.00,,,0.00,LWC V2.10 B1702,2013-07-24 00:41:00,
2013-07-23 20:46:00,76.0,72.8,29.59,WSW,249,1.0,2.0,90,0.00,,,0.00,LWC V2.10 B1702,2013-07-24 00:46:00,
2013-07-23 20:51:00,76.0,72.8,29.59,West,259,1.0,2.0,90,0.00,,,0.00,LWC V2.10 B1702,2013-07-24 00:51:00,
2013-07-23 20:56:00,75.9,72.7,29.59,West,276,0.0,5.0,90,0.00,,,0.00,LWC V2.10 B1702,2013-07-24 00:56:00,
2013-07-23 21:01:00,75.9,72.7,29.59,WSW,252,1.0,2.0,90,0.00,,,0.00,LWC V2.10 B1702,2013-07-24 01:01:00,
2013-07-23 21:06:00,75.9,72.7,29.59,NNW,327,0.0,2.0,90,0.00,,,0.00,LWC V2.10 B1702,2013-07-24 01:06:00,
2013-07-23 21:11:00,75.8,72.6,29.59,WSW,256,0.0,3.0,90,0.00,,,0.00,LWC V2.10 B1702,2013-07-24 01:11:00,
2013-07-23 21:16:00,75.8,72.6,29.59,WSW,250,1.0,1.0,90,0.00,,,0.00,LWC V2.10 B1702,2013-07-24 01:16:00,
2013-07-23 21:21:00,75.8,72.6,29.59,SW,234,1.0,1.0,90,0.00,,,0.00,LWC V2.10 B1702,2013-07-24 01:21:00,
2013-07-23 21:26:00,75.7,72.5,29.59,ENE,65,0.0,2.0,90,0.00,,,0.00,LWC V2.10 B1702,2013-07-24 01:26:00,
2013-07-23 21:31:00,75.7,72.9,29.59,WSW,248,0.0,4.0,91,0.00,,,0.00,LWC V2.10 B1702,2013-07-24 01:31:00,
2013-07-23 21:36:00,75.7,72.9,29.59,WSW,257,0.0,3.0,91,0.00,,,0.00,LWC V2.10 B1702,2013-07-24 01:36:00,
2013-07-23 21:41:00,75.7,72.9,29.59,West,281,0.0,4.0,91,0.00,,,0.00,LWC V2.10 B1702,2013-07-24 01:41:00,
2013-07-23 21:46:00,75.8,73.0,29.60,North,5,1.0,3.0,91,0.00,,,0.00,LWC V2.10 B1702,2013-07-24 01:46:00,
2013-07-23 21:51:00,75.8,73.0,29.60,West,275,0.0,1.0,91,0.00,,,0.00,LWC V2.10 B1702,2013-07-24 01:51:00,
2013-07-23 21:56:00,75.8,73.0,29.60,West,277,0.0,0.0,91,0.00,,,0.00,LWC V2.10 B1702,2013-07-24 01:56:00,
2013-07-23 22:01:00,75.8,73.0,29.60,NNW,329,0.0,1.0,91,0.00,,,0.00,LWC V2.10 B1702,2013-07-24 02:01:00,
2013-07-23 22:06:00,75.8,73.0,29.60,NW,319,0.0,5.0,91,0.00,,,0.00,LWC V2.10 B1702,2013-07-24 02:06:00,
2013-07-23 22:11:00,75.8,73.0,29.60,West,266,0.0,1.0,91,0.00,,,0.00,LWC V2.10 B1702,2013-07-24 02:11:00,
2013-07-23 22:16:00,75.8,73.0,29.60,SW,217,1.0,2.0,91,0.00,,,0.00,LWC V2.10 B1702,2013-07-24 02:16:00,
2013-07-23 22:21:00,75.8,73.0,29.60,NW,309,0.0,1.0,91,0.00,,,0.00,LWC V2.10 B1702,2013-07-24 02:21:00,
2013-07-23 22:26:00,75.8,73.0,29.60,NNW,342,1.0,2.0,91,0.00,,,0.00,LWC V2.10 B1702,2013-07-24 02:26:00,
2013-07-23 22:31:00,75.7,72.9,29.60,WSW,239,0.0,2.0,91,0.00,,,0.00,LWC V2.10 B1702,2013-07-24 02:31:00,
2013-07-23 22:36:00,75.7,72.9,29.60,WSW,249,0.0,1.0,91,0.00,,,0.00,LWC V2.10 B1702,2013-07-24 02:36:00,
2013-07-23 22:41:00,75.7,72.9,29.60,NW,323,0.0,1.0,91,0.00,,,0.00,LWC V2.10 B1702,2013-07-24 02:41:00,
2013-07-23 22:46:00,75.7,72.9,29.60,WNW,294,1.0,1.0,91,0.00,,,0.00,LWC V2.10 B1702,2013-07-24 02:46:00,
2013-07-23 22:51:00,75.6,72.8,29.60,West,263,0.0,3.0,91,0.00,,,0.00,LWC V2.10 B1702,2013-07-24 02:51:00,
2013-07-23 22:56:00,75.6,72.8,29.60,WNW,299,0.0,0.0,91,0.00,,,0.00,LWC V2.10 B1702,2013-07-24 02:56:00,
2013-07-23 23:01:00,75.6,72.8,29.60,WNW,297,0.0,0.0,91,0.00,,,0.00,LWC V2.10 B1702,2013-07-24 03:01:00,
2013-07-23 23:06:00,75.5,72.7,29.60,WNW,294,0.0,1.0,91,0.00,,,0.00,LWC V2.10 B1702,2013-07-24 03:06:00,
2013-07-23 23:11:00,75.5,72.7,29.60,West,274,0.0,2.0,91,0.00,,,0.00,LWC V2.10 B1702,2013-07-24 03:11:00,
2013-07-23 23:16:00,75.5,72.7,29.60,WNW,302,1.0,1.0,91,0.00,,,0.00,LWC V2.10 B1702,2013-07-24 03:16:00,
2013-07-23 23:21:00,75.5,72.7,29.60,West,268,2.0,3.0,91,0.00,,,0.00,LWC V2.10 B1702,2013-07-24 03:21:00,
2013-07-23 23:26:00,75.4,72.6,29.61,WNW,292,0.0,5.0,91,0.00,,,0.00,LWC V2.10 B1702,2013-07-24 03:26:00,
2013-07-23 23:31:00,75.4,72.6,29.60,SSW,211,0.0,1.0,91,0.00,,,0.00,LWC V2.10 B1702,2013-07-24 03:31:00,
2013-07-23 23:36:00,75.4,72.6,29.60,West,272,1.0,1.0,91,0.00,,,0.00,LWC V2.10 B1702,2013-07-24 03:36:00,
2013-07-23 23:41:00,75.3,72.5,29.60,West,272,0.0,2.0,91,0.00,,,0.00,LWC V2.10 B1702,2013-07-24 03:41:00,
2013-07-23 23:46:00,75.2,72.4,29.60,WNW,302,1.0,2.0,91,0.00,,,0.00,LWC V2.10 B1702,2013-07-24 03:46:00,
2013-07-23 23:51:00,75.1,72.3,29.60,WSW,251,1.0,2.0,91,0.00,,,0.00,LWC V2.10 B1702,2013-07-24 03:51:00,
2013-07-23 23:56:00,75.0,72.2,29.60,West,270,0.0,0.0,91,0.00,,,0.00,LWC V2.10 B1702,2013-07-24 03:56:00,